Home > Weather > Chhapra > Past weeks

Flag for India Past Weather in Chhapra, Bihar, India — Yesterday and Last 2 Weeks

Now
81 °F

Partly cloudy.


Feels Like: 87 °F
Forecast: 79 / 92 °F
Wind: 12 mph from Southeast

Location: Patna Airport

Current Time: Jul 27, 2016 at 6:43:03 AM

Latest Report: Jul 27, 2016 at 5:30 AM


Visibility: 2 mi

Pressure: 29.68 "Hg

Humidity: 89%

Dew Point: 77 °F

Location of ChhapraLocation

Past Weather in Chhapra — Graph

°F

Chhapra Temperature Yesterday

Maximum temperature yesterday: 102 °F (at 8:00 PM)
Minimum temperature yesterday: 81 °F (at 5:30 AM)
Average temperature yesterday: 88 °F

High & Low Weather Summary for the Past Weeks

 TemperatureHumidityPressure
High102 °F (Jul 26, 8:00 PM)100% (Jul 17, 8:00 AM)29.71 "Hg (Jul 17, 8:00 AM)
Low79 °F (Jul 16, 4:00 PM)45% (Jul 26, 8:00 PM)29.39 "Hg (Jul 14, 4:30 PM)
Average86 °F81%29.54 "Hg
* Reported Jul 12 6:30 AM — Jul 27 5:30 AM, Chhapra, Weather by CustomWeather, © 2016

Note: Actual official high and low records may vary slightly from our data, if they occured in-between our weather recording intervals... More about our weather records

Advertising

Chhapra Weather History for the Previous 24 Hours

Scroll right to see more
 ConditionsComfort  
Time TempWeatherWind HumidityBarometerVisibility
5:30 AM
Wed, Jul 27
81 °FPartly cloudy.12 mph89%29.68 "Hg1 mi
9:00 PM
Tue, Jul 26
84 °FPassing clouds.14 mph79%29.65 "Hg2 mi
8:30 PM84 °FPassing clouds.14 mph79%29.65 "Hg2 mi
8:00 PM102 °FPassing clouds.14 mph45%29.65 "Hg2 mi
7:30 PM86 °FPassing clouds.9 mph79%29.65 "Hg2 mi
7:00 PM86 °FScattered clouds.12 mph79%29.62 "Hg2 mi
6:30 PM88 °FScattered clouds.14 mph70%29.62 "Hg3 mi
6:00 PM90 °FScattered clouds.14 mph67%29.62 "Hg3 mi
5:30 PM90 °FScattered clouds.9 mph67%29.59 "Hg3 mi
5:00 PM90 °FScattered clouds.14 mph71%29.59 "Hg3 mi
4:30 PM90 °FScattered clouds.14 mph71%29.59 "Hg3 mi
4:00 PM91 °FScattered clouds.12 mph67%29.59 "Hg3 mi
3:30 PM91 °FScattered clouds.12 mph67%29.62 "Hg3 mi
3:00 PM91 °FScattered clouds.12 mph67%29.62 "Hg3 mi
2:30 PM91 °FScattered clouds.12 mph67%29.62 "Hg3 mi
2:00 PM91 °FScattered clouds.14 mph71%29.62 "Hg3 mi
1:30 PM91 °FScattered clouds.14 mph71%29.65 "Hg3 mi
1:00 PM91 °FBroken clouds.12 mph71%29.65 "Hg3 mi
12:30 PM90 °FBroken clouds.14 mph75%29.65 "Hg3 mi
12:00 PM90 °FBroken clouds.9 mph75%29.68 "Hg2 mi
11:30 AM88 °FBroken clouds.12 mph79%29.68 "Hg2 mi
11:00 AM88 °FBroken clouds.12 mph75%29.68 "Hg2 mi
10:30 AM86 °FBroken clouds.9 mph79%29.71 "Hg1 mi
10:00 AM86 °FDrizzle. More clouds than sun.9 mph79%29.71 "Hg1 mi
9:30 AM86 °FBroken clouds.9 mph79%29.71 "Hg1 mi
9:00 AM84 °FBroken clouds.7 mph84%29.71 "Hg1 mi
8:30 AM84 °FBroken clouds.7 mph84%29.71 "Hg1 mi
8:00 AM84 °FBroken clouds.7 mph84%29.71 "Hg1 mi
7:30 AM82 °FBroken clouds.9 mph89%29.68 "Hg1 mi
7:00 AM82 °FBroken clouds.9 mph89%29.68 "Hg1 mi
6:30 AM82 °FBroken clouds.12 mph89%29.68 "Hg1 mi
Weather by CustomWeather, © 2016

See weather overviewHow to use our weather pages